Weather History for San Diego Brown, CA

Change the Weather History Date:

Thursday, January 23, 2014

  Actual Average Record
Temperature  
Mean Temperature 51 °F -  
Max Temperature 63 °F 63 °F 76 °F (1946)
Min Temperature 39 °F 43 °F 34 °F (2007)
Degree Days  
Heating Degree Days 14    
Growing Degree Days 1 (Base 50)    
Moisture  
Dew Point 46 °F    
Average Humidity 84    
Maximum Humidity 100    
Minimum Humidity 63    
Precipitation  
Precipitation 0.00 in - - ()
Sea Level Pressure  
Sea Level Pressure 29.96 in    
Wind  
Wind Speed 2 mph (ENE)    
Max Wind Speed 8 mph    
Max Gust Speed -    
Visibility 5 miles    
Events Fog    
Averages and records for this station are not official NWS values.
T = Trace of Precipitation, MM = Missing Value Source: NWS Daily Summary

Daily Weather History Graph

Daily Weather History Graph

Search for Another Location

Airport:

Trip Planner

Search our weather history database for the weather conditions in past years. The results will help you decide how hot, cold, wet, or windy it might be!

Date:

Astronomy

Jan. 23, 2014 Rise Set
Actual Time 6:47 AM PST 5:12 PM PST
Civil Twilight 6:21 AM PST 5:38 PM PST
Nautical Twilight 5:51 AM PST 6:08 PM PST
Astronomical Twilight 5:22 AM PST 6:37 PM PST
Moon No Moon Rise 10:51 AM PST (1/23)
Length of Visible Light 11h 17m
Length of Day
10h 25m
Waning Gibbous, 54% of the Moon is Illuminated
Jan 23
Waning Gibbous
Jan 23
Last Quarter
Jan 30
New
Feb 6
First Quarter
Feb 14
Full

Hourly Weather History & Observations

Time (PST) Temp. Windchill Dew Point Humidity Pressure Visibility Wind Dir Wind Speed Gust Speed Precip Events Conditions
12:53 AM 50.0 °F - 50.0 °F 100% 29.92 in 0.2 mi Calm Calm - N/A Fog Fog
1:53 AM 46.0 °F - 45.0 °F 96% 29.92 in 0.2 mi Calm Calm - N/A Fog Fog
2:33 AM 44.6 °F 43.1 °F 44.6 °F 100% 29.91 in 0.2 mi East 3.5 mph - N/A Fog Fog
2:53 AM 39.9 °F 34.5 °F 39.0 °F 97% 29.91 in 0.8 mi ESE 8.1 mph - N/A   Mist
2:56 AM 39.2 °F 33.6 °F 37.4 °F 93% 29.91 in 4.0 mi ESE 8.1 mph - N/A   Mist
3:06 AM 42.8 °F 38.0 °F 39.2 °F 87% 29.91 in 10.0 mi SE 8.1 mph - N/A   Partly Cloudy
3:53 AM 44.1 °F - 39.9 °F 85% 29.91 in 10.0 mi Calm Calm - N/A   Clear
4:53 AM 45.0 °F - 39.0 °F 80% 29.91 in 9.0 mi Calm Calm - N/A   Clear
5:53 AM 44.1 °F 42.5 °F 33.1 °F 65% 29.93 in 10.0 mi SE 3.5 mph - N/A   Clear
6:53 AM 43.0 °F - 32.0 °F 65% 29.94 in 10.0 mi Calm Calm - N/A   Clear
7:53 AM 45.0 °F - 37.0 °F 74% 29.96 in 10.0 mi Calm Calm - N/A   Clear
8:01 AM 44.6 °F - 39.2 °F 81% 29.96 in 1.5 mi Calm Calm - N/A   Partly Cloudy
8:03 AM 42.8 °F 41.1 °F 41.0 °F 93% 29.96 in 0.5 mi NW 3.5 mph - N/A Fog Fog
8:34 AM 46.4 °F - 44.6 °F 93% 29.97 in 2.0 mi Calm Calm - N/A   Overcast
8:44 AM 48.2 °F - 46.4 °F 93% 29.97 in 1.0 mi Calm Calm - N/A   Overcast
8:51 AM 48.2 °F - 46.4 °F 93% 29.97 in 0.2 mi Calm Calm - N/A Fog Fog
8:53 AM 48.0 °F - 46.9 °F 96% 29.97 in 0.2 mi Calm Calm - N/A Fog Fog
9:15 AM 51.8 °F - 48.2 °F 88% 29.98 in 2.0 mi Calm Calm - N/A   Mostly Cloudy
9:28 AM 53.6 °F - 48.2 °F 82% 29.98 in 3.0 mi Calm Calm - N/A   Haze
9:53 AM 55.0 °F - 48.0 °F 77% 29.99 in 4.0 mi Variable 3.5 mph - N/A   Haze
10:53 AM 60.1 °F - 48.0 °F 64% 29.98 in 6.0 mi Variable 3.5 mph - N/A   Haze
12:53 PM 63.0 °F - 50.0 °F 63% 29.93 in 10.0 mi Variable 3.5 mph - N/A   Clear
1:53 PM 62.1 °F - 51.1 °F 67% 29.93 in 10.0 mi Variable 4.6 mph - N/A   Clear
2:53 PM 62.1 °F - 51.1 °F 67% 29.93 in 10.0 mi West 4.6 mph - N/A   Clear
3:53 PM 60.1 °F - 51.1 °F 72% 29.94 in 10.0 mi NW 3.5 mph - N/A   Clear
4:53 PM 57.9 °F - 51.1 °F 78% 29.96 in 8.0 mi West 3.5 mph - N/A   Clear
5:53 PM 57.0 °F - 51.1 °F 81% 29.99 in 8.0 mi Calm Calm - N/A   Clear
6:53 PM 55.9 °F - 52.0 °F 87% 30.01 in 7.0 mi Calm Calm - N/A   Clear
7:53 PM 55.0 °F - 51.1 °F 86% 30.03 in 6.0 mi NNE 3.5 mph - N/A   Clear
8:53 PM 55.0 °F - 52.0 °F 89% 30.05 in 6.0 mi Calm Calm - N/A   Clear
9:53 PM 54.0 °F - 52.0 °F 93% 30.07 in 6.0 mi Calm Calm - N/A   Clear
10:53 PM 54.0 °F - 52.0 °F 93% 30.08 in 5.0 mi Calm Calm - N/A   Clear